Seward, AK

5:16 AM AKST on February 21, 2018 (GMT -0900)
Seward

Weather History for PAWD - November, 2014

Change the Weather History Date:

Thursday, November 6, 2014

  Actual Average Record
Temperature  
Mean Temperature 34 °F -  
Max Temperature 39 °F 37 °F 47 °F (1979)
Min Temperature 30 °F 28 °F 10 °F (2004)
Degree Days  
Heating Degree Days 30    
Moisture  
Dew Point 30 °F    
Average Humidity 81    
Maximum Humidity 86    
Minimum Humidity 73    
Precipitation  
Precipitation 0.00 in - - ()
Sea Level Pressure  
Sea Level Pressure 29.47 in    
Wind  
Wind Speed 8 mph (North)    
Max Wind Speed 13 mph    
Max Gust Speed -    
Visibility 10 miles    
Events Rain    
Averages and records for this station are not official NWS values.
T = Trace of Precipitation, MM = Missing Value Source: NWS Daily Summary

Daily Weather History Graph

Daily Weather History Graph

Search for Another Location

Airport or City:

Trip Planner

Search our weather history database for the weather conditions in past years. The results will help you decide how hot, cold, wet, or windy it might be!

Date:

Astronomy

Nov. 06, 2014 Rise Set
Actual Time 8:34 AM AKST 4:47 PM AKST
Civil Twilight 7:47 AM AKST 5:34 PM AKST
Nautical Twilight 6:56 AM AKST 6:24 PM AKST
Astronomical Twilight 6:08 AM AKST 7:13 PM AKST
Moon 5:06 PM AKST (11/6) 8:08 AM AKST (11/6)
Length of Visible Light 9h 47m
Length of Day
8h 13m
Full, 100% of the Moon is Illuminated
Nov 6
Full
Nov 6
Full
Nov 14
Last Quarter
Nov 22
New
Nov 29
First Quarter

Hourly Weather History & Observations

Time (AKST) Temp. Windchill Dew Point Humidity Pressure Visibility Wind Dir Wind Speed Gust Speed Precip Events Conditions
12:53 AM 36.0 °F 29.0 °F 28.9 °F 76% 29.37 in 10.0 mi North 9.2 mph - N/A   Partly Cloudy
1:53 AM 36.0 °F 27.5 °F 30.0 °F 79% 29.38 in 10.0 mi North 12.7 mph - N/A   Clear
2:53 AM 34.0 °F 25.0 °F 30.0 °F 85% 29.38 in 10.0 mi North 12.7 mph - N/A   Clear
3:53 AM 34.0 °F 26.0 °F 28.9 °F 82% 29.38 in 10.0 mi North 10.4 mph - N/A   Clear
4:53 AM 33.1 °F 24.9 °F 28.0 °F 82% 29.39 in 10.0 mi North 10.4 mph - N/A   Clear
5:53 AM 33.1 °F 23.9 °F 28.0 °F 82% 29.39 in 10.0 mi North 12.7 mph - N/A   Scattered Clouds
6:53 AM 32.0 °F 23.0 °F 28.0 °F 85% 29.41 in 10.0 mi North 11.5 mph - N/A   Mostly Cloudy
7:53 AM 30.9 °F 22.8 °F 27.0 °F 85% 29.43 in 10.0 mi NNW 9.2 mph - N/A   Scattered Clouds
8:53 AM 30.9 °F 22.8 °F 27.0 °F 85% 29.45 in 10.0 mi North 9.2 mph - N/A   Overcast
9:53 AM 30.9 °F 23.5 °F 26.1 °F 82% 29.47 in 10.0 mi NW 8.1 mph - N/A   Overcast
10:53 AM 32.0 °F 25.6 °F 27.0 °F 82% 29.48 in 10.0 mi NNW 6.9 mph - N/A   Overcast
11:53 AM 33.1 °F 28.7 °F 27.0 °F 78% 29.49 in 10.0 mi North 4.6 mph - N/A   Mostly Cloudy
12:53 PM 36.0 °F - 28.9 °F 76% 29.49 in 10.0 mi Calm Calm - N/A   Overcast
1:53 PM 36.0 °F 33.3 °F 28.9 °F 76% 29.49 in 10.0 mi West 3.5 mph - N/A   Overcast
2:53 PM 37.9 °F 35.5 °F 30.9 °F 76% 29.49 in 10.0 mi East 3.5 mph - N/A   Overcast
3:53 PM 37.0 °F - 32.0 °F 82% 29.49 in 10.0 mi Calm Calm - N/A   Overcast
4:53 PM 37.0 °F 34.5 °F 33.1 °F 86% 29.51 in 10.0 mi ENE 3.5 mph - 0.00 in   Overcast
5:53 PM 39.9 °F 35.1 °F 32.0 °F 73% 29.51 in 10.0 mi NNW 6.9 mph - 0.00 in   Overcast
6:53 PM 37.9 °F 35.5 °F 32.0 °F 79% 29.53 in 10.0 mi SE 3.5 mph - N/A   Overcast
7:53 PM 36.0 °F 33.3 °F 32.0 °F 86% 29.56 in 10.0 mi ENE 3.5 mph - 0.00 in   Overcast
8:53 PM 37.0 °F 32.4 °F 30.9 °F 79% 29.56 in 10.0 mi North 5.8 mph - N/A   Partly Cloudy
9:53 PM 37.0 °F 34.5 °F 30.9 °F 79% 29.56 in 10.0 mi East 3.5 mph - N/A   Mostly Cloudy
10:53 PM 37.9 °F 34.4 °F 32.0 °F 79% 29.57 in 10.0 mi SW 4.6 mph - 0.00 in Rain Light Rain
11:53 PM 36.0 °F 32.1 °F 32.0 °F 86% 29.56 in 10.0 mi NNW 4.6 mph - 0.00 in   Overcast